Simultaneous Nadir Overpasses (SNOs) Predictions

Prediction of SNOs between LANDSAT-8 and METOP-B Satellite Orbit:

Table of predicted SNOs for the next 14.0 days since TLE Epoch: 7/15/2023
Index Date (LANDSAT-8) Time (LANDSAT-8) Lat,Lon (LANDSAT-8) SZA (LANDSAT-8 ) Date (METOP-B) Time (METOP-B) Lat,Lon (METOP-B) SZA (METOP-B ) Distance(km) Time Diff (sec)
1 07/16/2023 23:35:10 -81.21, 47.67 117.93 07/16/2023 23:35:01 -81.21, 47.56 117.95 1.97 9
2 07/17/2023 00:24:36 81.22,-144.57 62.10 07/17/2023 00:25:40 81.23,-144.50 62.14 1.39 64
3 07/19/2023 19:09:25 -81.21, 114.03 117.46 07/19/2023 19:09:20 -81.21, 114.07 117.45 0.79 5
4 07/19/2023 19:58:50 81.23, -77.87 62.62 07/19/2023 19:59:59 81.23, -78.01 62.63 2.47 69
5 07/22/2023 13:54:12 81.19, 12.60 63.04 07/22/2023 13:52:58 81.20, 12.79 63.03 3.32 74
6 07/22/2023 14:43:38 -81.21,-179.42 116.91 07/22/2023 14:43:38 -81.21,-179.49 116.92 1.14 0
7 07/22/2023 15:33:03 81.24, -11.35 63.17 07/22/2023 15:34:16 81.24, -11.20 63.21 2.54 73
8 07/25/2023 09:28:26 81.19, 78.94 63.60 07/25/2023 09:27:18 81.19, 78.76 63.56 3.06 68
9 07/25/2023 10:17:52 -81.21,-113.06 116.34 07/25/2023 10:17:57 -81.21,-113.12 116.34 1.07 5
10 07/28/2023 05:02:39 81.19, 145.46 64.24 07/28/2023 05:01:36 81.20, 145.42 64.21 0.84 63



Historial Predications of SNOs between LANDSAT-8 and METOP-B
